Location: Zagreb
(45.8000°N, 16.0000°E)
Time: 18:21:35
(UTC+02:00)

A-11 Canister half - Pass Details

Date: 13 August 2022
Orbit: 1524 x 1684 km, 47.3° (Epoch: 05 October)

Event Time Altitude Azimuth Distance (km) Brightness Sun altitude
Rises 14:11:48 0° 288° (WNW) 4,910 11.7 55.4°
Reaches altitude 10° 14:16:40 10° 269° (W) 3,892 11.5 54.9°
Maximum altitude 14:21:52 16° 237° (WSW) 3,415 11.7 54.4°
Drops below altitude 10° 14:27:00 10° 204° (SSW) 3,816 11.9 53.9°
Sets 14:31:45 0° 184° (S) 4,764 12.0 53.4°
